When you browse on this site, cookies collect data to enhance your experience and personalize the content and advertising you see.
Visit our Privacy Policy to learn more. By continuing to use the site, you agree to this use of cookies and data.
  • en Belgique
  • Liste des pays
  • À 7 jours
  • Température de l'eau
  • Carte satellitaire
  • Carte météo
  • Widgets météo
  • user-avatar
    Se connecter

    Météo par heure à Molepolole

    Ce jour, 19 Avril, Vendredi

    Heure Température Précipitation Vent Pression Humidité
    00:00 +23°C° 0 mm 4 m/s 667 mmHg 47%
    01:00 +23°C° 0 mm 4 m/s 667 mmHg 50%
    02:00 +22°C° 0 mm 4 m/s 667 mmHg 52%
    03:00 +22°C° 0 mm 3 m/s 667 mmHg 53%
    04:00 +21°C° 0 mm 3 m/s 667 mmHg 53%
    05:00 +20°C° 0 mm 3 m/s 667 mmHg 54%
    06:00 +21°C° 0 mm 3 m/s 667 mmHg 53%
    07:00 +21°C° 0 mm 4 m/s 668 mmHg 52%
    08:00 +22°C° 0 mm 4 m/s 668 mmHg 51%
    09:00 +25°C° 0 mm 4 m/s 669 mmHg 45%
    10:00 +27°C° 0 mm 4 m/s 669 mmHg 40%
    11:00 +29°C° 0 mm 4 m/s 670 mmHg 34%
    12:00 +30°C° 0 mm 4 m/s 669 mmHg 31%
    13:00 +32°C° 0 mm 4 m/s 669 mmHg 28%
    14:00 +33°C° 0 mm 3 m/s 668 mmHg 25%
    15:00 +33°C° 0 mm 3 m/s 668 mmHg 25%
    16:00 +33°C° 0 mm 3 m/s 668 mmHg 24%
    17:00 +32°C° 0 mm 2 m/s 667 mmHg 24%
    18:00 +30°C° 0 mm 2 m/s 667 mmHg 26%
    19:00 +29°C° 0 mm 2 m/s 667 mmHg 28%
    20:00 +28°C° 0 mm 2 m/s 668 mmHg 29%
    21:00 +27°C° 0 mm 3 m/s 668 mmHg 31%
    22:00 +26°C° 0 mm 3 m/s 668 mmHg 32%
    23:00 +25°C° 0 mm 3 m/s 668 mmHg 33%

    Demain, 20 Avril, Samedi

    Heure Température Précipitation Vent Pression Humidité
    00:00 +25°C° 0 mm 3 m/s 668 mmHg 36%
    01:00 +24°C° 0 mm 3 m/s 667 mmHg 39%
    02:00 +22°C° 0 mm 3 m/s 667 mmHg 41%
    03:00 +21°C° 0 mm 2 m/s 667 mmHg 44%
    04:00 +21°C° 0 mm 2 m/s 667 mmHg 46%
    05:00 +21°C° 0 mm 1 m/s 666 mmHg 48%
    06:00 +21°C° 0 mm 2 m/s 667 mmHg 49%
    07:00 +21°C° 0 mm 3 m/s 667 mmHg 49%
    08:00 +22°C° 0 mm 3 m/s 668 mmHg 50%
    09:00 +25°C° 0 mm 4 m/s 668 mmHg 43%
    10:00 +27°C° 0 mm 4 m/s 668 mmHg 37%
    11:00 +29°C° 0 mm 5 m/s 669 mmHg 31%
    12:00 +30°C° 0 mm 4 m/s 668 mmHg 28%
    13:00 +32°C° 0 mm 4 m/s 668 mmHg 25%
    14:00 +33°C° 0 mm 4 m/s 667 mmHg 22%
    15:00 +33°C° 0 mm 3 m/s 667 mmHg 21%
    16:00 +33°C° 0 mm 3 m/s 666 mmHg 21%
    17:00 +31°C° 0 mm 3 m/s 666 mmHg 21%
    18:00 +30°C° 0 mm 3 m/s 666 mmHg 23%
    19:00 +28°C° 0 mm 3 m/s 666 mmHg 26%
    20:00 +27°C° 0 mm 3 m/s 666 mmHg 28%
    21:00 +26°C° 0 mm 3 m/s 666 mmHg 30%
    22:00 +25°C° 0 mm 3 m/s 666 mmHg 31%
    23:00 +24°C° 0 mm 3 m/s 666 mmHg 33%

    Après-demain, 21 Avril, Dimanche

    Heure Température Précipitation Vent Pression Humidité
    00:00 +24°C° 0 mm 3 m/s 666 mmHg 35%
    01:00 +22°C° 0 mm 3 m/s 665 mmHg 36%
    02:00 +22°C° 0 mm 3 m/s 665 mmHg 38%
    03:00 +21°C° 0 mm 2 m/s 665 mmHg 39%
    04:00 +20°C° 0 mm 2 m/s 665 mmHg 41%
    05:00 +20°C° 0 mm 2 m/s 664 mmHg 42%
    06:00 +20°C° 0 mm 2 m/s 665 mmHg 42%
    07:00 +21°C° 0 mm 2 m/s 666 mmHg 41%
    08:00 +21°C° 0 mm 3 m/s 666 mmHg 41%
    09:00 +24°C° 0 mm 3 m/s 667 mmHg 37%
    10:00 +27°C° 0 mm 4 m/s 667 mmHg 32%
    11:00 +29°C° 0 mm 5 m/s 668 mmHg 28%
    12:00 +30°C° 0 mm 5 m/s 667 mmHg 25%
    13:00 +32°C° 0 mm 5 m/s 666 mmHg 23%
    14:00 +33°C° 0 mm 5 m/s 666 mmHg 20%
    15:00 +32°C° 0 mm 4 m/s 665 mmHg 20%
    16:00 +32°C° 0 mm 4 m/s 665 mmHg 21%
    17:00 +32°C° 0 mm 4 m/s 665 mmHg 21%
    18:00 +29°C° 0 mm 4 m/s 664 mmHg 24%
    19:00 +27°C° 0 mm 4 m/s 664 mmHg 28%
    20:00 +26°C° 0 mm 3 m/s 664 mmHg 31%
    21:00 +25°C° 0 mm 4 m/s 664 mmHg 31%
    22:00 +25°C° 0 mm 4 m/s 664 mmHg 32%
    23:00 +23°C° 0 mm 5 m/s 664 mmHg 32%

    22 Avril, Lundi

    Heure Température Précipitation Vent Pression Humidité
    00:00 +22°C° 0 mm 4 m/s 664 mmHg 34%
    01:00 +22°C° 0 mm 4 m/s 664 mmHg 36%
    02:00 +21°C° 0 mm 4 m/s 664 mmHg 38%
    03:00 +20°C° 0 mm 3 m/s 664 mmHg 44%
    04:00 +20°C° 0 mm 3 m/s 664 mmHg 49%
    05:00 +19°C° 0 mm 2 m/s 663 mmHg 54%
    06:00 +19°C° 0 mm 3 m/s 664 mmHg 55%
    07:00 +20°C° 0 mm 4 m/s 665 mmHg 56%
    08:00 +20°C° 0 mm 4 m/s 665 mmHg 57%
    09:00 +22°C° 0 mm 5 m/s 666 mmHg 53%
    10:00 +23°C° 0 mm 6 m/s 666 mmHg 50%
    11:00 +24°C° 0 mm 6 m/s 666 mmHg 46%
    12:00 +26°C° 0 mm 6 m/s 665 mmHg 44%
    13:00 +26°C° 0 mm 6 m/s 665 mmHg 42%
    14:00 +27°C° 0 mm 6 m/s 664 mmHg 39%
    15:00 +27°C° 0 mm 6 m/s 664 mmHg 39%
    16:00 +27°C° 0 mm 6 m/s 664 mmHg 38%
    17:00 +27°C° 0 mm 6 m/s 663 mmHg 37%
    18:00 +26°C° 0.1 mm 5 m/s 663 mmHg 40%
    19:00 +25°C° 0.1 mm 4 m/s 664 mmHg 43%
    20:00 +23°C° 0.1 mm 4 m/s 664 mmHg 46%
    21:00 +22°C° 1 mm 3 m/s 664 mmHg 54%
    22:00 +21°C° 1 mm 3 m/s 663 mmHg 61%
    23:00 +20°C° 1 mm 2 m/s 663 mmHg 69%

    23 Avril, Mardi

    Heure Température Précipitation Vent Pression Humidité
    00:00 +20°C° 0.1 mm 3 m/s 663 mmHg 68%
    01:00 +20°C° 0.1 mm 3 m/s 663 mmHg 68%
    02:00 +20°C° 0.1 mm 4 m/s 663 mmHg 67%
    03:00 +19°C° 0.5 mm 4 m/s 663 mmHg 72%
    04:00 +19°C° 0.5 mm 5 m/s 663 mmHg 76%
    05:00 +17°C° 0.5 mm 5 m/s 663 mmHg 80%
    06:00 +17°C° 0.1 mm 6 m/s 664 mmHg 80%
    07:00 +19°C° 0.1 mm 6 m/s 664 mmHg 79%
    08:00 +18°C° 0.1 mm 7 m/s 665 mmHg 79%
    09:00 +21°C° 0 mm 7 m/s 665 mmHg 71%
    10:00 +22°C° 0 mm 7 m/s 665 mmHg 64%
    11:00 +24°C° 0 mm 7 m/s 666 mmHg 57%
    12:00 +24°C° 1 mm 7 m/s 665 mmHg 56%
    13:00 +26°C° 1 mm 7 m/s 665 mmHg 54%
    14:00 +26°C° 1 mm 7 m/s 664 mmHg 53%
    15:00 +26°C° 0.5 mm 6 m/s 664 mmHg 52%
    16:00 +27°C° 0.5 mm 5 m/s 664 mmHg 50%
    17:00 +27°C° 0.5 mm 4 m/s 664 mmHg 49%
    18:00 +26°C° 0.2 mm 4 m/s 664 mmHg 54%
    19:00 +25°C° 0.2 mm 4 m/s 664 mmHg 58%
    20:00 +23°C° 0.2 mm 4 m/s 664 mmHg 62%
    21:00 +22°C° 0.3 mm 5 m/s 664 mmHg 65%
    22:00 +21°C° 0.3 mm 5 m/s 664 mmHg 68%
    23:00 +21°C° 0.3 mm 6 m/s 664 mmHg 71%

    24 Avril, Mercredi

    Heure Température Précipitation Vent Pression Humidité
    00:00 +20°C° 0.3 mm 5 m/s 664 mmHg 73%
    01:00 +19°C° 0.3 mm 4 m/s 664 mmHg 76%
    02:00 +19°C° 0.3 mm 3 m/s 664 mmHg 78%
    03:00 +19°C° 0.3 mm 3 m/s 664 mmHg 79%
    04:00 +18°C° 0.3 mm 3 m/s 664 mmHg 81%
    05:00 +18°C° 0.3 mm 3 m/s 664 mmHg 83%
    06:00 +18°C° 0.2 mm 3 m/s 664 mmHg 81%
    07:00 +19°C° 0.2 mm 3 m/s 665 mmHg 80%
    08:00 +19°C° 0.2 mm 3 m/s 665 mmHg 79%
    09:00 +21°C° 0.2 mm 3 m/s 665 mmHg 72%
    10:00 +22°C° 0.2 mm 4 m/s 666 mmHg 66%
    11:00 +25°C° 0.2 mm 4 m/s 666 mmHg 60%
    12:00 +26°C° 0 mm 4 m/s 665 mmHg 52%
    13:00 +28°C° 0 mm 5 m/s 665 mmHg 45%
    14:00 +30°C° 0 mm 5 m/s 665 mmHg 37%
    15:00 +29°C° 0 mm 4 m/s 664 mmHg 39%
    16:00 +29°C° 0 mm 3 m/s 664 mmHg 42%
    17:00 +28°C° 0 mm 2 m/s 664 mmHg 44%
    18:00 +27°C° 0 mm 2 m/s 664 mmHg 45%
    19:00 +27°C° 0 mm 1 m/s 664 mmHg 45%
    20:00 +26°C° 0 mm 1 m/s 664 mmHg 46%
    21:00 +26°C° 0 mm 2 m/s 665 mmHg 47%
    22:00 +25°C° 0 mm 2 m/s 665 mmHg 48%
    23:00 +25°C° 0 mm 2 m/s 665 mmHg 49%
    Voir plus